Home   Weather   Port Said   Past weeks

Flag for Egypt Past Weather in Port Said, Egypt — Yesterday and Last 2 Weeks

Now
77 °F

Passing clouds.


Feels Like: 79 °F
Forecast: 76 / 83 °F
Wind: 10 mph from Northwest

Location: Port Said Airport

Current Time: Sep 27, 2016 at 7:30:32 PM

Latest Report: Sep 27, 2016 at 6:00 PM


Visibility: N/A

Pressure: 30.01 "Hg

Humidity: 57%

Dew Point: 61 °F

Location of Port SaidLocation

Past Weather in Port Said — Graph

°F

Port Said Temperature Yesterday

Maximum temperature yesterday: 82 °F (at 1:00 PM)
Minimum temperature yesterday: 75 °F (at 2:00 AM)
Average temperature yesterday: 78 °F

High & Low Weather Summary for the Past Weeks

 TemperatureHumidityPressure
High90 °F (Sep 21, 12:00 PM)94% (Sep 21, 5:00 AM)30.01 "Hg (Sep 21, 5:00 AM)
Low73 °F (Sep 27, 5:00 AM)43% (Sep 21, 1:00 PM)29.83 "Hg (Sep 15, 4:00 AM)
Average81 °F69%29.90 "Hg
* Reported Sep 12 6:00 PM — Sep 27 6:00 PM, Port Said, Weather by CustomWeather, © 2016

Note: Actual official high and low records may vary slightly from our data, if they occured in-between our weather recording intervals... More about our weather records

Advertising

Port Said Weather History for the Previous 24 Hours

Scroll right to see more
 ConditionsComfort  
Time TempWeatherWind HumidityBarometerVisibility
6:00 PM
Tue, Sep 27
77 °FPassing clouds.10 mph57%29.86 "HgN/A
5:00 PM79 °FScattered clouds.14 mph61%29.98 "HgN/A
4:00 PM79 °FPassing clouds.14 mph54%29.98 "HgN/A
3:00 PM79 °FPassing clouds.13 mph58%29.98 "HgN/A
2:00 PM81 °FPassing clouds.12 mph54%29.98 "HgN/A
1:00 PM81 °FScattered clouds.9 mph48%29.98 "HgN/A
12:00 PM81 °FScattered clouds.7 mph51%30.01 "HgN/A
11:00 AM81 °FScattered clouds.7 mph51%30.01 "HgN/A
10:00 AM81 °FScattered clouds.9 mph48%30.01 "HgN/A
9:00 AM77 °FPassing clouds.6 mph61%30.01 "HgN/A
8:00 AM75 °FPassing clouds.7 mph74%29.98 "Hg4 mi
7:00 AM73 °FPassing clouds.6 mph74%29.98 "Hg4 mi
6:00 AM73 °FPassing clouds.7 mph74%29.95 "Hg4 mi
5:00 AM73 °FClear.3 mph69%29.95 "Hg10 mi
4:00 AM75 °FPassing clouds.10 mph65%29.95 "HgN/A
3:00 AM75 °FPassing clouds.9 mph65%29.95 "HgN/A
2:00 AM75 °FPassing clouds.10 mph65%29.95 "HgN/A
1:00 AM75 °FPassing clouds.3 mph65%29.95 "HgN/A
12:00 AM75 °FPassing clouds.5 mph65%29.98 "HgN/A
11:00 PM
Mon, Sep 26
77 °FClear.8 mph61%29.98 "Hg10 mi
10:00 PM77 °FClear.9 mph61%29.98 "Hg10 mi
9:00 PM77 °FClear.9 mph61%29.95 "Hg10 mi
8:00 PM77 °FPassing clouds.10 mph65%29.95 "HgN/A
7:00 PM77 °FPassing clouds.12 mph61%29.95 "HgN/A
Weather by CustomWeather, © 2016

See weather overviewHow to use our weather pages